Flag for Norway Weather past 2 weeks in Mo i Rana, Norway

Now
64 °F

Scattered clouds.


Feels Like: 64 °F
Forecast: 52 / 58 °F
Wind: 7 mph from North

Location: Mo I Rana / Rossvoll

Current Time: Jul 29, 2015 at 12:38:49 PM

Latest Report: Jul 29, 2015 at 11:50 AM


Visibility: N/A

Pressure: 29.59 "Hg

Humidity: 60%

Dew point: 50 °F

Location of Mo i RanaLocation

Historic Weather in Mo i Rana — Graph

°F

Mo i Rana temperature yesterday

Maximum temperature yesterday: 66 °F (at 3:50 PM)
Minimum temperature yesterday: 50 °F (at 6:20 AM)
Average temperature yesterday: 60 °F

Past Weeks' High & Low Weather Summary

 TemperatureHumidityPressure
High68 °F (Jul 22, 3:50 PM)100% (Jul 17, 7:20 AM)29.95 "Hg (Jul 17, 7:20 AM)
Low41 °F (Jul 21, 5:20 AM)40% (Jul 22, 3:50 PM)29.30 "Hg (Jul 27, 9:20 AM)
Average55 °F74%29.70 "Hg
* Reported Jul 14 10:20 AM — Jul 29 10:50 AM, Mo i Rana, Weather by CustomWeather, © 2015

Note: Actual official high and low records may vary slightly from our data, if they occured in-between our weather recording intervals... More about our weather records

Advertising

Mo i Rana weather history for previous 24 hours

 ConditionsComfort  
Time TempWeatherWind HumidityBarometerVisibility
10:50 AM
Wed, Jul 29
61 °FPassing clouds.6 mph68%29.59 "HgN/A
10:20 AM61 °FPassing clouds.3 mph72%29.59 "HgN/A
9:50 AM61 °FPassing clouds.1 mph72%29.62 "HgN/A
9:20 AM61 °FScattered clouds.1 mph72%29.62 "HgN/A
8:50 AM55 °FPartly sunny.2 mph82%29.62 "HgN/A
8:20 AM54 °FPartly sunny.3 mph94%29.62 "HgN/A
7:50 AM54 °FPartly sunny.3 mph94%29.62 "HgN/A
6:50 AM52 °FPartly sunny.1 mph100%29.62 "HgN/A
5:50 AM52 °FPartly sunny.1 mph94%29.62 "HgN/A
10:50 PM
Tue, Jul 28
55 °FScattered showers. Broken clouds.2 mph94%29.62 "HgN/A
10:20 PM55 °FScattered showers. Broken clouds.2 mph94%29.62 "HgN/A
9:50 PM55 °FScattered showers. Broken clouds.2 mph88%29.62 "HgN/A
9:20 PM57 °FSprinkles. Broken clouds.3 mph82%29.62 "HgN/A
8:50 PM64 °FSprinkles. Scattered clouds.2 mph56%29.59 "HgN/A
8:20 PM64 °FScattered showers. Scattered clouds.2 mph56%29.59 "HgN/A
7:50 PM64 °FScattered clouds.6 mph52%29.59 "HgN/A
7:20 PM64 °FScattered clouds.6 mph52%29.59 "HgN/A
6:50 PM66 °FScattered clouds.6 mph46%29.59 "HgN/A
6:20 PM66 °FScattered clouds.6 mph46%29.59 "HgN/A
5:50 PM66 °FScattered clouds.6 mph46%29.59 "HgN/A
5:20 PM66 °FScattered clouds.6 mph46%29.59 "HgN/A
4:50 PM66 °FScattered clouds.8 mph46%29.59 "HgN/A
4:20 PM64 °FScattered clouds.8 mph49%29.59 "HgN/A
3:50 PM66 °FScattered clouds.8 mph46%29.59 "HgN/A
2:50 PM64 °FScattered clouds.6 mph49%29.59 "HgN/A
2:20 PM64 °FScattered clouds.6 mph49%29.59 "HgN/A
1:50 PM64 °FScattered clouds.6 mph49%29.59 "HgN/A
1:20 PM64 °FScattered clouds.6 mph49%29.56 "HgN/A
12:50 PM63 °FScattered clouds.6 mph56%29.59 "HgN/A
12:20 PM61 °FScattered clouds.6 mph55%29.59 "HgN/A
Weather by CustomWeather, © 2015

See weather overviewHow to use our weather pages